Location: Milton
(43.5183°N, 79.8775°W)
Time: 14:40:45
(UTC+00:00)

NOAA 15 - Pass Details

Date: 01 April 2023
Orbit: 796 x 811 km, 98.6° (Epoch: 29 May)

Event Time Altitude Azimuth Distance (km) Brightness Sun altitude
Rises 01:33:15 0° 210° (SSW) 3,320 7.8 -19.6°
Reaches altitude 10° 01:36:28 10° 230° (SW) 2,393 7.3 -20.1°
Maximum altitude 01:39:47 17° 270° (W) 1,966 7.4 -20.6°
Drops below altitude 10° 01:43:07 10° 309° (NW) 2,401 8.2 -21.1°
Sets 01:46:21 0° 330° (NNW) 3,335 8.8 -21.7°
